Weather reports worldwide

Advertisment
Cabo Busto, Spain (8010): temperature & dewpoint: 04.12.2018 10:00:00 - 10.12.2018 10:00:00 (CET)Cabo Busto, Spain (8010): wind speed & gusts: 04.12.2018 10:00:00 - 10.12.2018 10:00:00 (CET)Cabo Busto, Spain (8010): wind direction: 04.12.2018 10:00:00 - 10.12.2018 10:00:00 (CET)Cabo Busto, Spain (8010): reduced air pressure: 04.12.2018 10:00:00 - 10.12.2018 10:00:00 (CET)Cabo Busto, Spain (8010): visibility: 04.12.2018 10:00:00 - 10.12.2018 10:00:00 (CET)Cabo Busto, Spain (8010): sunshine duration: 04.12.2018 10:00:00 - 10.12.2018 10:00:00 (CET)Cabo Busto, Spain (8010): precipitation: 04.12.2018 10:00:00 - 10.12.2018 10:00:00 (CET)
Date & Time tt [°C] td [°C] ff [km/h] ff [kn] fx [km/h] fx [kn] dd ppp [hPa] vv [km] sd [min] rr [mm]
10.12.2018 10:00:00 8,0 3,0 18 10 25 13 SSE 1031,4 20 41 0,0
10.12.2018 09:00:00 7,1 3,4 18 10 26 14 SE 1031,8 20 0 0,0
10.12.2018 08:00:00 7,1 4,3 18 10 25 13 SE 1032,0 20 0 0,0
10.12.2018 07:00:00 7,3 4,8 19 10 24 13 SSE 1032,4 18 0 -
10.12.2018 06:00:00 7,7 5,1 16 9 23 12 SSE 1032,6 17 0 0,0
10.12.2018 05:00:00 7,9 5,5 15 8 19 11 SSE 1032,7 15 0 0,0
10.12.2018 04:00:00 8,9 5,9 15 8 23 12 SSE 1033,2 18 0 0,0
10.12.2018 03:00:00 9,7 7,1 17 9 24 13 SSE 1033,3 16 0 0,0
10.12.2018 02:00:00 9,8 7,4 16 9 20 11 SE 1033,6 14 0 0,0
10.12.2018 01:00:00 10,2 7,8 12 6 15 8 SE 1034,0 11 0 -
10.12.2018 00:00:00 10,9 8,1 10 5 13 7 SE 1034,3 10 0 0,0
09.12.2018 23:00:00 12,0 9,0 8 5 12 6 SSE 1034,2 11 0 0,0
09.12.2018 22:00:00 12,3 9,3 5 3 7 4 SSE 1034,6 8 0 0,0
09.12.2018 21:00:00 13,0 10,0 3 2 8 5 S 1034,6 1,3 0 0,0
09.12.2018 20:00:00 13,1 10,0 1 1 12 6 E 1034,2 1,9 0 0,0
09.12.2018 19:00:00 13,1 10,0 3 2 22 12 W 1033,7 1,9 0 -
09.12.2018 18:00:00 13,3 9,7 6 4 18 10 WNW 1033,2 2,2 0 0,0
09.12.2018 17:00:00 13,5 9,6 9 5 22 12 WNW 1032,9 3,3 0 0,0
09.12.2018 16:00:00 14,0 10,0 11 6 23 12 W 1032,5 3,3 0 0,0
09.12.2018 15:00:00 14,2 9,8 13 7 26 14 W 1032,3 3,5 0 0,0
09.12.2018 14:00:00 14,4 10,2 10 5 26 14 W 1032,7 5 0 0,0
09.12.2018 13:00:00 14,0 10,2 14 7 26 14 W 1032,7 11 5 -
09.12.2018 12:00:00 14,1 10,6 16 8 35 19 W 1032,8 7 42 0,0
09.12.2018 11:00:00 14,0 10,8 22 12 35 19 W 1032,7 8 60 0,0
09.12.2018 10:00:00 13,0 10,5 21 12 38 21 W 1031,8 10 9 0,0
09.12.2018 09:00:00 13,4 10,9 20 11 40 22 W 1031,0 6 0 0,0
09.12.2018 08:00:00 13,6 8,0 17 9 29 16 W 1031,3 4,0 0 0,0
09.12.2018 07:00:00 13,8 8,3 16 9 27 15 WSW 1030,2 8 0 -
09.12.2018 06:00:00 13,9 8,3 23 12 31 17 WSW 1029,9 15 0 0,0
09.12.2018 05:00:00 13,6 9,4 26 14 41 22 W 1029,8 3,8 0 0,0
09.12.2018 04:00:00 13,8 9,3 17 9 27 15 W 1029,4 6 0 0,0
09.12.2018 03:00:00 13,8 9,7 22 12 32 18 W 1028,9 3,5 0 0,0
09.12.2018 02:00:00 14,9 9,7 11 6 46 25 W 1028,9 14 0 0,0
09.12.2018 01:00:00 16,4 8,9 37 20 59 32 W 1028,3 20 0 -
09.12.2018 00:00:00 16,5 10,2 39 21 53 29 W 1028,2 19 0 0,0
08.12.2018 23:00:00 17,0 9,9 39 21 52 28 WSW 1028,1 19 0 0,0
08.12.2018 22:00:00 17,4 9,6 39 21 51 28 WSW 1027,6 20 0 0,0
08.12.2018 21:00:00 18,0 8,5 41 22 58 32 WSW 1027,0 20 0 0,0
08.12.2018 20:00:00 18,0 8,0 34 19 54 29 WSW 1026,8 19 0 0,0
08.12.2018 19:00:00 17,7 6,8 35 19 48 26 WSW 1026,7 20 0 -
08.12.2018 18:00:00 15,0 7,8 16 9 25 14 W 1027,1 11 13 0,0
08.12.2018 17:00:00 16,0 9,9 10 5 20 11 W 1027,1 2,7 60 0,0
08.12.2018 16:00:00 16,4 10,3 9 5 16 9 W 1027,1 5 60 0,0
08.12.2018 15:00:00 15,9 9,6 8 4 14 8 W 1027,3 4,4 60 0,0
08.12.2018 14:00:00 16,8 9,7 6 4 19 10 W 1027,9 2,9 60 0,0
08.12.2018 13:00:00 15,9 8,4 8 4 24 13 WNW 1028,4 9 60 -
08.12.2018 12:00:00 14,7 7,0 6 3 13 7 NNE 1028,6 4,7 60 0,0
08.12.2018 11:00:00 14,5 4,1 8 5 31 17 SSW 1029,1 20 60 0,0
08.12.2018 10:00:00 12,7 4,5 17 9 35 19 SW 1029,5 20 42 0,0
08.12.2018 09:00:00 12,0 5,0 21 12 41 22 W 1029,9 13 0 0,0
08.12.2018 08:00:00 12,2 4,6 25 13 42 23 WSW 1029,7 20 0 0,0
08.12.2018 07:00:00 12,0 5,0 26 14 43 23 WSW 1029,5 16 0 -
08.12.2018 06:00:00 12,0 5,0 23 12 40 22 WSW 1029,3 13 0 0,0
08.12.2018 05:00:00 11,8 5,0 18 10 42 23 SW 1029,2 17 0 0,0
08.12.2018 04:00:00 11,7 4,8 29 16 42 23 WSW 1029,7 14 0 0,0
08.12.2018 03:00:00 11,5 4,6 19 11 37 20 WSW 1029,2 13 0 0,0
08.12.2018 02:00:00 11,4 4,6 16 9 27 15 SW 1029,2 13 0 0,0
08.12.2018 01:00:00 11,8 5,1 18 10 34 18 WSW 1029,7 12 0 -
08.12.2018 00:00:00 12,0 5,8 26 14 35 19 W 1029,5 17 0 0,0
07.12.2018 23:00:00 11,9 5,9 28 15 40 21 W 1029,6 16 0 0,0
07.12.2018 22:00:00 12,5 6,5 32 17 45 25 W 1029,6 19 0 0,0
07.12.2018 21:00:00 12,4 6,7 24 13 33 18 W 1029,3 16 0 0,0
07.12.2018 20:00:00 12,4 7,3 23 12 37 20 WSW 1028,9 17 0 0,0
07.12.2018 19:00:00 12,6 8,5 27 15 50 27 W 1028,6 12 0 -
07.12.2018 18:00:00 12,6 8,9 34 19 60 33 W 1028,0 17 0 0,0
07.12.2018 17:00:00 12,7 10,3 37 20 74 40 W 1026,8 7 0 0,2
07.12.2018 16:00:00 12,6 10,5 46 25 75 40 W 1025,5 10 0 0,2
07.12.2018 15:00:00 12,6 10,5 39 21 100 54 W 1025,4 5 0 0,0
07.12.2018 14:00:00 16,7 10,0 43 23 81 44 W 1023,5 17 0 0,0
07.12.2018 13:00:00 17,0 9,7 44 24 70 38 WSW 1023,3 20 0 -
07.12.2018 12:00:00 16,8 9,4 47 25 77 42 WSW 1023,2 20 14 0,0
07.12.2018 11:00:00 16,5 8,7 39 21 70 38 W 1022,9 20 7 0,0
07.12.2018 10:00:00 16,2 7,4 40 22 67 36 WSW 1023,1 20 21 0,0
07.12.2018 09:00:00 14,9 7,7 41 22 59 32 WSW 1023,7 20 0 0,0
07.12.2018 08:00:00 14,9 7,4 50 27 73 39 WSW 1023,7 20 0 0,0
07.12.2018 07:00:00 12,2 7,1 25 14 33 18 WSW 1024,5 20 0 -
07.12.2018 06:00:00 7,8 5,0 5 3 18 10 WSW 1025,1 20 0 0,0
07.12.2018 05:00:00 7,6 3,8 7 4 21 11 SSE 1024,7 20 0 0,0
07.12.2018 04:00:00 7,7 4,5 14 8 19 11 SSE 1025,3 20 0 0,0
07.12.2018 03:00:00 7,4 4,3 15 8 20 11 SSE 1025,4 20 0 0,0
07.12.2018 02:00:00 8,1 4,8 14 8 18 10 SSE 1026,0 20 0 0,0
07.12.2018 01:00:00 8,6 5,1 11 6 18 10 S 1026,8 20 0 -
07.12.2018 00:00:00 9,0 5,3 8 4 15 8 S 1027,4 20 0 0,0
06.12.2018 23:00:00 9,2 5,6 11 6 19 10 SSE 1027,8 20 0 0,0
06.12.2018 22:00:00 9,4 6,1 13 7 19 10 SSE 1028,1 20 0 0,0
06.12.2018 21:00:00 10,2 7,1 13 7 19 10 SSE 1028,4 20 0 0,0
06.12.2018 20:00:00 10,8 7,7 13 7 17 9 SSE 1028,7 20 0 0,0
06.12.2018 19:00:00 11,8 7,6 10 5 14 8 S 1028,7 20 0 -
06.12.2018 18:00:00 14,0 9,2 9 5 26 14 WSW 1028,4 20 33 0,0
06.12.2018 17:00:00 14,8 10,0 23 13 44 24 W 1028,0 20 60 0,0
06.12.2018 16:00:00 16,1 8,8 28 15 46 25 W 1027,4 20 60 0,0
06.12.2018 15:00:00 16,0 9,7 28 15 50 27 W 1027,8 20 60 0,0
06.12.2018 14:00:00 15,7 9,6 31 17 50 27 W 1028,1 17 58 0,0
06.12.2018 13:00:00 15,7 10,0 29 15 42 23 W 1028,8 20 58 -
06.12.2018 12:00:00 - - - - - - - - - - -
06.12.2018 11:00:00 14,1 9,7 19 11 37 20 W 1029,4 20 60 0,0
06.12.2018 10:00:00 13,1 8,8 15 8 33 18 WSW 1029,0 20 47 0,0
06.12.2018 09:00:00 12,5 8,9 18 10 32 18 WSW 1028,4 20 0 0,0
06.12.2018 08:00:00 12,6 9,2 22 12 36 19 W 1027,8 20 0 0,0
06.12.2018 07:00:00 13,0 9,4 16 9 26 14 WSW 1027,5 20 0 -
06.12.2018 06:00:00 13,2 9,7 17 9 31 17 WSW 1027,3 20 0 0,0
06.12.2018 05:00:00 13,3 10,0 13 7 34 19 SW 1027,2 20 0 0,0
06.12.2018 04:00:00 13,3 10,6 21 12 34 18 W 1027,1 15 0 0,0
06.12.2018 03:00:00 13,7 10,9 19 11 34 18 W 1026,4 20 0 0,0
06.12.2018 02:00:00 13,9 11,1 21 12 37 20 W 1025,7 20 0 0,0
06.12.2018 01:00:00 14,3 10,9 16 8 37 20 W 1026,0 20 0 -
06.12.2018 00:00:00 14,8 11,2 22 12 43 23 W 1025,6 20 0 0,0
05.12.2018 23:00:00 15,0 11,3 24 13 40 22 W 1025,2 20 0 0,0
05.12.2018 22:00:00 15,6 11,3 16 8 29 16 W 1024,8 20 0 0,0
05.12.2018 21:00:00 16,1 11,2 19 10 48 26 W 1024,5 20 0 0,0
05.12.2018 20:00:00 18,3 10,6 39 21 55 30 WSW 1023,1 20 0 0,0
05.12.2018 19:00:00 18,4 10,5 42 23 58 31 W 1022,2 20 0 -
05.12.2018 18:00:00 18,6 10,4 42 23 56 30 W 1021,4 20 26 0,0
05.12.2018 17:00:00 19,7 10,6 41 22 63 34 WSW 1020,8 20 60 0,0
05.12.2018 16:00:00 20,3 9,8 46 25 68 37 WSW 1020,0 20 57 0,0
05.12.2018 15:00:00 20,7 9,9 41 22 56 31 W 1019,9 20 46 0,0
05.12.2018 14:00:00 19,1 9,0 26 14 59 32 WSW 1020,2 20 29 0,0
05.12.2018 13:00:00 17,9 9,0 - - - - - 1021,2 20 37 -
05.12.2018 12:00:00 17,8 8,1 16 9 32 17 SE 1020,8 20 21 0,0
05.12.2018 11:00:00 16,7 7,6 13 7 43 23 SSE 1021,0 20 4 0,0
05.12.2018 10:00:00 15,9 7,7 21 11 - - SW 1020,9 20 2 0,0
05.12.2018 09:00:00 11,2 8,9 11 6 23 12 S 1022,2 20 0 0,0
05.12.2018 08:00:00 10,1 8,3 16 8 23 12 SSE 1021,8 20 0 0,0
05.12.2018 07:00:00 10,5 8,7 17 9 27 14 SSE 1021,3 20 0 -
05.12.2018 06:00:00 11,0 9,0 17 9 24 13 SSE 1021,0 19 0 0,0
05.12.2018 05:00:00 11,4 9,7 18 10 23 13 SSE 1021,0 19 0 0,0
05.12.2018 04:00:00 11,2 9,3 15 8 20 11 SSE 1021,2 20 0 0,0
05.12.2018 03:00:00 10,3 8,4 16 8 19 10 SSE 1021,2 20 0 0,0
05.12.2018 02:00:00 11,1 8,8 13 7 16 8 S 1021,1 20 0 0,0
05.12.2018 01:00:00 13,3 9,9 10 5 18 10 SW 1021,0 20 0 -
05.12.2018 00:00:00 14,0 10,8 14 8 21 11 WSW 1020,7 20 0 0,0
04.12.2018 23:00:00 14,0 10,8 18 10 25 14 WSW 1020,3 20 0 0,0
04.12.2018 22:00:00 14,1 11,2 12 7 20 11 WSW 1019,9 20 0 0,0
04.12.2018 21:00:00 14,0 12,0 16 8 20 11 WSW 1019,8 14 0 0,0
04.12.2018 20:00:00 13,7 11,9 8 4 15 8 WSW 1019,6 11 0 0,0
04.12.2018 19:00:00 14,0 11,9 11 6 16 8 WSW 1019,7 4,4 0 -
04.12.2018 18:00:00 14,4 12,1 9 5 13 7 WSW 1019,4 12 12 0,0
04.12.2018 17:00:00 15,1 12,4 9 5 11 6 WSW 1018,9 6 60 0,0
04.12.2018 16:00:00 16,7 13,1 6 3 9 5 WSW 1018,8 2,0 60 0,0
04.12.2018 15:00:00 16,5 13,1 5 3 11 6 W 1019,0 2,8 60 0,0
04.12.2018 14:00:00 17,0 12,5 10 5 15 8 ENE 1019,4 20 60 0,0
04.12.2018 13:00:00 16,5 11,9 10 5 19 11 ENE 1020,1 7 60 -
04.12.2018 12:00:00 16,8 12,1 16 9 25 13 SE 1020,9 20 60 0,0
04.12.2018 11:00:00 16,0 12,2 11 6 25 14 S 1021,5 20 59 0,0
04.12.2018 10:00:00 14,5 11,7 19 10 29 15 SSE 1021,2 20 10 0,0

tt = temperature
td = dewpoint
ff = wind speed
fx = gusts
dd = wind direction
ppp = reduced air pressure
vv = visibility
sd = sunshine duration
rr = precipitation

Next stations